User: anonymous   Login
Location: Newark
(43.6583°N, 1.6617°E)
Time: 06:35:57
(UTC+00:00)
Language:

Tiros 1 - Orbit

View from above orbital plane
View from above orbital plane
View from above satellite
View from above satellite

Ground track
Ground track

The orbit data is extracted from the following two-line orbital elements,

1    29U 60002B   19235.38644344 -.00000151  00000-0  86334-5 0  9992
2    29  48.3791 279.9656 0023625  31.9408 328.2931 14.74314271174534
Epoch (UTC): 23 August 2019 09:16:28
Eccentricity: 0.0023625
inclination: 48.3791°
perigee height: 631 km
apogee height: 664 km
right ascension of ascending node: 279.9656°
argument of perigee: 31.9408°
revolutions per day: 14.74314271
mean anomaly at epoch: 328.2931°
orbit number at epoch: 17453

The dashed part of the orbit path shows where the satellite is in the earth's shadow,  

DLR